HAWK-5B

导读

HAWK-5B是美国于北京时间2022年5月25日8时整发射的一颗人造卫星,归属于HAWK卫星系列。HAWK系列卫星主要用于空间技术验证等航天相关任务,该卫星的成功发射进一步延续了美国在小卫星技术领域的探索,为后续同类型航天任务的开展积累了相关技术经验,助力低轨卫星网络的技术迭代与发展。

基本信息
目录编号:
52756
目录名称:
HAWK-5B
国际标识:
2022-057AA
轨道中心:
EARTH
卫星名称:
HAWK-5B
卫星全名:
--
卫星状态:
在轨 (已飞行1573 天)
发射日期:
2022-05-25 UTC
国别 :
美国 (US)
星等 :
--
该卫星已列入 空间交会检测服务 Space Conjunction Data Service (SCDS) ,当前飞行风险评估等级: 无高风险
轨道信息
数据来源 国际轨道数据 AOE轨道数据
星历时间 2026-09-14T05:47:10+0800
11小时前
查看轨道信息
2026-09-10T08:00:00+0800
4天前
查看轨道信息
半长轴 6782.528km 6782.807km
偏心率 0.0005547 0.0005349
轨道倾角 97.669° 97.670°
近地点辐角 98.844° 109.412°
升交点赤经 60.912° 56.730°
平近点角 261.344° 1.087°
近地点 400.628km 401.041km
远地点 408.154km 408.299km
周期 92.650分钟 92.656分钟
每日圈数 15.542305 15.541346
详细信息
使用方式:
暂无
2D轨道图
3D轨道图
轨道高度分析图
轨道倾角分析图
轨道综合分析图
查看轨道综合分析图
交会数据列表
事件ID 空间交会对象 最接近时刻(TCA) 交会距离 交会风险概率(CRP) 交会风险指数(CRI) 操作
CDM_260912-213905-275606-239524
HAWK-5B (52756)
OBJECT U (62395)
2026-09-12T
21:39:54+0000
0.287 km
中距离
4.456234E-4 高风险 0.88
与全量物体交会距离演化趋势 订阅飞行安全评估服务
与全量物体交会风险概率演化趋势 订阅飞行安全评估服务